Flag for South Africa Weather past 2 weeks in Port Elizabeth, South Africa

Now
64 °F

Passing clouds.


Feels Like: 64 °F
Forecast: 50 / 66 °F
Wind: 9 mph from Southeast

Location: Port Elizabeth Airport

Current Time: Sep 3, 2015 at 6:02:09 PM

Latest Report: Sep 3, 2015 at 5:00 PM


Visibility: N/A

Pressure: 30.51 "Hg

Humidity: 56%

Dew point: 48 °F

Location of Port ElizabethLocation

Historic Weather in Port Elizabeth — Graph

°F

Port Elizabeth temperature yesterday

Maximum temperature yesterday: 63 °F (at 3:00 PM)
Minimum temperature yesterday: 55 °F (at 3:00 AM)
Average temperature yesterday: 58 °F

Past Weeks' High & Low Weather Summary

 TemperatureHumidityPressure
High70 °F (Aug 25, 12:00 PM)100% (Aug 21, 7:00 AM)30.54 "Hg (Aug 21, 7:00 AM)
Low50 °F (Aug 22, 6:00 AM)52% (Sep 3, 3:00 PM)29.89 "Hg (Aug 31, 6:00 PM)
Average61 °F84%30.12 "Hg
* Reported Aug 19 5:00 PM — Sep 3 5:00 PM, Port Elizabeth, Weather by CustomWeather, © 2015

Note: Actual official high and low records may vary slightly from our data, if they occured in-between our weather recording intervals... More about our weather records

Advertising

Port Elizabeth weather history for previous 24 hours

 ConditionsComfort  
Time TempWeatherWind HumidityBarometerVisibility
5:00 PM
Thu, Sep 3
64 °FPassing clouds.9 mph56%30.51 "HgN/A
4:00 PM64 °FScattered clouds.8 mph56%30.51 "HgN/A
3:00 PM66 °FScattered clouds.10 mph52%30.51 "HgN/A
2:00 PM63 °FScattered clouds.10 mph64%30.51 "HgN/A
1:00 PM63 °FBroken clouds.12 mph68%30.54 "HgN/A
12:00 PM66 °FScattered clouds.7 mph60%30.54 "HgN/A
11:00 AM64 °FScattered clouds.8 mph64%30.54 "HgN/A
10:00 AM64 °FPartly sunny.3 mph64%30.54 "HgN/A
9:00 AM59 °FPartly sunny.6 mph82%30.54 "HgN/A
8:00 AM57 °FPartly sunny.5 mph88%30.51 "HgN/A
7:00 AM54 °FPartly sunny.6 mph94%30.51 "HgN/A
6:00 AM50 °FScattered clouds.5 mph94%30.48 "HgN/A
5:00 AM50 °FClear.6 mph88%30.48 "Hg10 mi
4:00 AM52 °FPassing clouds.5 mph77%30.48 "HgN/A
3:00 AM55 °FPassing clouds.5 mph72%30.48 "HgN/A
2:00 AM57 °FPassing clouds.7 mph67%30.48 "HgN/A
1:00 AM52 °FPassing clouds.6 mph82%30.45 "HgN/A
12:00 AM55 °FPassing clouds.6 mph72%30.45 "HgN/A
11:00 PM
Wed, Sep 2
55 °FPassing clouds.6 mph72%30.42 "HgN/A
10:00 PM55 °FPassing clouds.7 mph72%30.42 "HgN/A
9:00 PM57 °FPassing clouds.8 mph67%30.42 "HgN/A
8:00 PM59 °FPassing clouds.9 mph63%30.39 "HgN/A
7:00 PM59 °FPassing clouds.9 mph63%30.36 "HgN/A
6:00 PM57 °FPassing clouds.10 mph82%30.36 "HgN/A
Weather by CustomWeather, © 2015

See weather overviewHow to use our weather pages